Date String (YYYY-MM-DD hh:mm:ss) UTC,Instrument flags,absolute air pressure of the measurement (hPa),sample flow rate (lpm),inlet stack bypass flow (lpm),air temperature of the measurement (°C),ambient temperature measured by the external sensor (°C),aerosol sample conditioner tube jacket temperature (°C),OPC LED temperature (°C),internal box temperature (°C),relative humidity of the measurement (%),span deviation,mass concentration of particles derived from Lorenz-Mie calculation of OPC scattering (μg/m³),mass concentration of particles derived from Lorenz-Mie calculation of OPC scattering (μg/m³),mass concentration of particles derived from Lorenz-Mie calculation of OPC scattering (μg/m³)
DateTimeUTC,F1_M11,P_M11,Q1_M11,Q2_M11,T1_M11,T2_M11,T3_M11,T4_M11,T5_M11,U1_M11,ZSPAN_M11,X0_M11,X2_M11,X1_M11
2024-02-26 07:00:00,SystemResetWarning,0821.8,5.00,000.00,020.9,020.1,000.0,029.1,022.5,11.3,0000.0,0003.83,0001.93,0001.17
2024-02-26 07:01:00,SystemResetWarning,0821.8,5.00,000.00,020.9,020.1,000.0,029.1,022.5,11.2,0000.0,0003.99,0001.95,0001.17
2024-02-26 07:02:00,SystemResetWarning,0821.9,5.00,000.00,020.8,020.1,000.0,029.1,022.5,11.2,0000.0,0003.96,0001.95,0001.15
2024-02-26 07:03:00,SystemResetWarning,0821.8,5.00,000.00,020.8,020.1,000.0,029.1,022.5,11.3,0000.0,0003.97,0001.95,0001.13
2024-02-26 07:04:00,SystemResetWarning,0821.8,5.00,000.00,020.8,020.1,000.0,029.1,022.5,11.2,0000.0,0003.89,0001.90,0001.12
2024-02-26 07:05:00,SystemResetWarning,0821.7,5.00,000.00,020.8,020.1,000.0,029.1,022.5,11.2,0000.0,0004.30,0001.88,0001.11
2024-02-26 07:06:00,SystemResetWarning,0821.8,5.00,000.00,020.8,020.1,000.0,029.1,022.5,11.2,0000.0,0004.70,0001.86,0001.10
2024-02-26 07:07:00,SystemResetWarning,0821.8,5.00,000.00,020.8,020.1,000.0,029.1,022.5,11.2,0000.0,0005.30,0001.81,0001.11
2024-02-26 07:08:00,SystemResetWarning,0821.8,5.00,000.00,020.8,020.1,000.0,029.1,022.5,11.3,0000.0,0005.72,0001.79,0001.10
2024-02-26 07:09:00,SystemResetWarning,0821.8,5.01,000.00,020.8,020.0,000.0,029.1,022.5,11.1,0000.0,0005.55,0001.72,0001.09
2024-02-26 07:10:00,SystemResetWarning,0821.8,5.01,000.00,020.8,020.0,000.0,029.1,022.4,11.1,0000.0,0005.22,0001.64,0001.08
2024-02-26 07:11:00,SystemResetWarning,0821.8,5.00,000.00,020.8,020.0,000.0,029.1,022.5,11.1,0000.0,0005.04,0001.59,0001.07
2024-02-26 07:12:00,SystemResetWarning,0821.8,5.00,000.00,020.8,020.0,000.0,029.1,022.4,11.1,0000.0,0005.03,0001.61,0001.07
2024-02-26 07:13:00,SystemResetWarning,0821.8,5.00,000.00,020.8,020.0,000.0,029.1,022.5,11.1,0000.0,0004.92,0001.54,0001.06
2024-02-26 07:14:00,SystemResetWarning,0821.7,5.00,000.00,020.8,020.0,000.0,029.1,022.5,11.0,0000.0,0004.93,0001.52,0001.07
2024-02-26 07:15:00,SystemResetWarning,0821.6,4.99,000.00,020.8,020.0,000.0,029.1,022.5,11.0,0000.0,0005.02,0001.55,0001.07
2024-02-26 07:16:00,SystemResetWarning,0821.7,5.00,000.00,020.8,020.0,000.0,029.1,022.5,11.0,0000.0,0004.72,0001.57,0001.07
2024-02-26 07:17:00,SystemResetWarning,0821.6,5.00,000.00,020.8,020.0,000.0,029.1,022.4,11.1,0000.0,0004.25,0001.58,0001.07
2024-02-26 07:18:00,SystemResetWarning,0821.6,5.01,000.00,020.8,020.0,000.0,029.1,022.4,10.9,0000.0,0003.78,0001.62,0001.07
2024-02-26 07:19:00,SystemResetWarning,0821.6,5.02,000.00,020.8,020.0,000.0,029.0,022.4,10.8,0000.0,0003.18,0001.65,0001.07
2024-02-26 07:20:00,SystemResetWarning,0821.8,5.00,000.00,020.8,020.0,000.0,029.0,022.4,10.8,0000.0,0003.30,0001.69,0001.08
2024-02-26 07:21:00,SystemResetWarning,0821.6,5.00,000.00,020.8,020.0,000.0,029.0,022.4,10.8,0000.0,0003.76,0001.73,0001.09
2024-02-26 07:22:00,SystemResetWarning,0821.6,5.00,000.00,020.8,020.0,000.0,029.0,022.4,10.8,0000.0,0005.08,0001.73,0001.09
2024-02-26 07:23:00,SystemResetWarning,0821.6,4.99,000.00,020.8,020.0,000.0,029.0,022.4,10.9,0000.0,0005.07,0001.67,0001.09
2024-02-26 07:24:00,SystemResetWarning,0821.6,5.00,000.00,020.8,020.0,000.0,029.0,022.4,10.9,0000.0,0005.03,0001.68,0001.11
2024-02-26 07:25:00,SystemResetWarning,0821.5,5.00,000.00,020.8,020.0,000.0,029.0,022.4,10.8,0000.0,0005.02,0001.68,0001.11
2024-02-26 07:26:00,SystemResetWarning,0821.7,5.01,000.00,020.8,020.0,000.0,029.0,022.4,10.6,0000.0,0004.86,0001.65,0001.11
2024-02-26 07:27:00,SystemResetWarning,0821.6,5.01,000.00,020.7,020.0,000.0,029.0,022.4,10.6,0000.0,0004.81,0001.63,0001.10
2024-02-26 07:28:00,SystemResetWarning,0821.6,5.01,000.00,020.7,020.0,000.0,029.0,022.4,10.6,0000.0,0004.81,0001.64,0001.10
2024-02-26 07:29:00,SystemResetWarning,0821.7,4.99,000.00,020.7,020.0,000.0,029.0,022.4,10.6,0000.0,0004.69,0001.60,0001.10
2024-02-26 07:30:00,SystemResetWarning,0821.6,4.99,000.00,020.7,020.0,000.0,029.0,022.4,10.8,0000.0,0005.04,0001.63,0001.10
2024-02-26 07:31:00,SystemResetWarning,0821.5,5.00,000.00,020.7,020.0,000.0,029.0,022.4,10.8,0000.0,0005.05,0001.62,0001.10
2024-02-26 07:32:00,SystemResetWarning,0821.7,5.01,000.00,020.7,020.0,000.0,029.0,022.4,10.8,0000.0,0004.89,0001.64,0001.08
2024-02-26 07:33:00,SystemResetWarning,0821.7,5.01,000.00,020.7,020.0,000.0,029.0,022.4,10.9,0000.0,0003.91,0001.67,0001.08
2024-02-26 07:34:00,SystemResetWarning,0821.7,5.00,000.00,020.7,020.0,000.0,029.0,022.4,10.9,0000.0,0003.42,0001.69,0001.08
2024-02-26 07:35:00,SystemResetWarning,0821.6,5.00,000.00,020.7,020.0,000.0,029.0,022.4,10.8,0000.0,0003.48,0001.71,0001.08
2024-02-26 07:36:00,SystemResetWarning,0821.8,5.00,000.00,020.7,020.0,000.0,029.0,022.4,10.8,0000.0,0003.95,0001.71,0001.06
2024-02-26 07:37:00,SystemResetWarning,0821.8,5.01,000.00,020.7,020.0,000.0,029.0,022.4,10.9,0000.0,0004.49,0001.74,0001.07
2024-02-26 07:38:00,SystemResetWarning,0821.6,5.00,000.00,020.7,020.0,000.0,029.0,022.3,10.8,0000.0,0004.60,0001.73,0001.07
2024-02-26 07:39:00,SystemResetWarning,0821.7,4.99,000.00,020.7,019.9,000.0,029.0,022.3,10.8,0000.0,0005.03,0001.72,0001.07
2024-02-26 07:40:00,SystemResetWarning,0821.3,4.99,000.00,020.7,019.9,000.0,029.0,022.3,10.9,0000.0,0005.67,0001.72,0001.07
2024-02-26 07:41:00,SystemResetWarning,0821.7,5.01,000.00,020.7,019.9,000.0,029.0,022.3,10.9,0000.0,0005.31,0001.67,0001.05
2024-02-26 07:42:00,SystemResetWarning,0821.6,5.00,000.00,020.7,019.9,000.0,029.0,022.4,11.0,0000.0,0005.32,0001.65,0001.05
2024-02-26 07:43:00,SystemResetWarning,0821.4,5.00,000.00,020.7,019.9,000.0,029.0,022.3,10.9,0000.0,0006.32,0001.62,0001.06
2024-02-26 07:44:00,SystemResetWarning,0821.5,4.99,000.00,020.7,019.9,000.0,029.0,022.3,11.0,0000.0,0006.98,0001.61,0001.06
2024-02-26 07:45:00,SystemResetWarning,0821.2,5.00,000.00,020.7,019.9,000.0,029.0,022.3,10.9,0000.0,0007.21,0001.62,0001.06
2024-02-26 07:46:00,SystemResetWarning,0821.3,5.00,000.00,020.7,019.9,000.0,029.0,022.3,10.9,0000.0,0007.39,0001.66,0001.07
2024-02-26 07:47:00,SystemResetWarning,0821.4,5.01,000.00,020.7,019.9,000.0,029.0,022.3,10.9,0000.0,0006.99,0001.66,0001.07
2024-02-26 07:48:00,SystemResetWarning,0821.4,5.00,000.00,020.7,019.9,000.0,028.9,022.3,11.0,0000.0,0006.58,0001.63,0001.06
2024-02-26 07:49:00,SystemResetWarning,0821.3,5.01,000.00,020.7,019.9,000.0,028.9,022.3,10.9,0000.0,0006.53,0001.66,0001.07
2024-02-26 07:50:00,SystemResetWarning,0821.4,4.98,000.00,020.7,019.9,000.0,028.9,022.3,11.0,0000.0,0006.18,0001.64,0001.08
2024-02-26 07:51:00,SystemResetWarning,0821.2,4.99,000.00,020.7,019.9,000.0,028.9,022.3,11.0,0000.0,0005.81,0001.70,0001.08
2024-02-26 07:52:00,SystemResetWarning,0821.2,5.01,000.00,020.6,019.9,000.0,028.9,022.3,11.0,0000.0,0006.58,0001.76,0001.09
2024-02-26 07:53:00,SystemResetWarning,0821.2,5.00,000.00,020.6,019.9,000.0,028.9,022.3,11.0,0000.0,0006.97,0001.80,0001.09
2024-02-26 07:54:00,SystemResetWarning,0821.1,5.00,000.00,020.6,019.9,000.0,028.9,022.3,11.0,0000.0,0005.97,0001.79,0001.08
2024-02-26 07:55:00,SystemResetWarning,0821.1,5.00,000.00,020.6,019.9,000.0,028.9,022.3,11.0,0000.0,0005.19,0001.77,0001.07
2024-02-26 07:56:00,SystemResetWarning,0821.1,4.99,000.00,020.6,019.9,000.0,028.9,022.3,11.0,0000.0,0004.87,0001.73,0001.06
2024-02-26 07:57:00,SystemResetWarning,0821.0,5.00,000.00,020.6,019.9,000.0,028.9,022.3,10.9,0000.0,0004.80,0001.73,0001.06
2024-02-26 07:58:00,SystemResetWarning,0821.1,4.99,000.00,020.6,019.9,000.0,028.9,022.3,11.0,0000.0,0005.06,0001.80,0001.06
2024-02-26 07:59:00,SystemResetWarning,0821.1,5.00,000.00,020.6,019.9,000.0,028.9,022.3,11.0,0000.0,0005.14,0001.81,0001.05
